TimeCDT,TemperatureF,Dew PointF,Humidity,Sea Level PressureIn,VisibilityMPH,Wind Direction,Wind SpeedMPH,Gust SpeedMPH,PrecipitationIn,Events,Conditions,WindDirDegrees,DateUTC
12:07 AM,37.4,33.8,87,29.80,10.0,WSW,4.6,-,N/A,,Clear,240,2014-04-07 05:07:00
12:35 AM,35.6,30.2,81,29.80,10.0,Calm,Calm,-,N/A,,Mostly Cloudy,0,2014-04-07 05:35:00
1:09 AM,33.8,30.2,87,29.80,10.0,Calm,Calm,-,N/A,,Mostly Cloudy,0,2014-04-07 06:09:00
1:18 AM,33.8,30.2,87,29.79,10.0,Calm,Calm,-,N/A,,Mostly Cloudy,0,2014-04-07 06:18:00
1:51 AM,35.6,30.2,81,29.81,7.0,South,4.6,-,N/A,,Drizzle,180,2014-04-07 06:51:00
2:33 AM,37.4,35.6,93,29.80,5.0,WNW,3.5,-,N/A,Rain,Light Rain,300,2014-04-07 07:33:00
2:38 AM,37.4,35.6,93,29.80,5.0,WNW,3.5,-,N/A,Rain,Light Rain,290,2014-04-07 07:38:00
2:55 AM,37.4,35.6,93,29.80,2.0,Calm,Calm,-,N/A,Rain,Rain,0,2014-04-07 07:55:00
2:59 AM,37.4,35.6,93,29.80,2.0,Calm,Calm,-,N/A,Rain,Light Rain,0,2014-04-07 07:59:00
3:29 AM,37.4,35.6,93,29.80,1.0,Calm,Calm,-,N/A,Rain,Rain,0,2014-04-07 08:29:00
3:50 AM,35.6,35.6,100,29.78,1.0,Calm,Calm,-,N/A,Rain,Rain,0,2014-04-07 08:50:00
4:00 AM,35.6,33.8,93,29.78,1.0,Calm,Calm,-,N/A,Rain,Rain,0,2014-04-07 09:00:00
4:20 AM,35.6,33.8,93,29.78,1.0,Calm,Calm,-,N/A,,Light Drizzle,0,2014-04-07 09:20:00
4:55 AM,37.4,35.6,93,29.78,2.5,Calm,Calm,-,N/A,,Light Drizzle,0,2014-04-07 09:55:00
5:17 AM,37.4,37.4,100,29.78,3.0,Calm,Calm,-,N/A,Rain,Light Rain,0,2014-04-07 10:17:00
5:28 AM,37.4,35.6,93,29.78,1.5,Calm,Calm,-,N/A,Rain,Light Rain,0,2014-04-07 10:28:00
5:43 AM,37.4,37.4,100,29.78,2.0,Calm,Calm,-,N/A,Rain,Rain,0,2014-04-07 10:43:00
5:56 AM,35.6,35.6,100,29.78,1.0,Calm,Calm,-,N/A,Rain,Rain,0,2014-04-07 10:56:00
6:22 AM,37.4,37.4,100,29.78,7.0,Calm,Calm,-,N/A,,Light Drizzle,0,2014-04-07 11:22:00
6:43 AM,35.6,33.8,93,29.79,2.0,Calm,Calm,-,N/A,,Overcast,0,2014-04-07 11:43:00
7:01 AM,35.6,33.8,93,29.79,0.5,Calm,Calm,-,N/A,Fog,Fog,0,2014-04-07 12:01:00
7:16 AM,35.6,35.6,100,29.80,0.5,Calm,Calm,-,N/A,Fog,Fog,0,2014-04-07 12:16:00
7:37 AM,35.6,35.6,100,29.80,0.5,Calm,Calm,-,N/A,Fog,Fog,0,2014-04-07 12:37:00
7:58 AM,37.4,37.4,100,29.81,2.5,Calm,Calm,-,N/A,,Overcast,0,2014-04-07 12:58:00
8:17 AM,39.2,37.4,93,29.81,7.0,Calm,Calm,-,N/A,,Mostly Cloudy,0,2014-04-07 13:17:00
8:38 AM,39.2,39.2,100,29.81,7.0,Calm,Calm,-,N/A,,Scattered Clouds,0,2014-04-07 13:38:00
8:57 AM,41.0,41.0,100,29.81,10.0,Calm,Calm,-,N/A,,Clear,0,2014-04-07 13:57:00
9:17 AM,42.8,42.8,100,29.80,10.0,Calm,Calm,-,N/A,,Clear,0,2014-04-07 14:17:00
9:39 AM,44.6,42.8,93,29.80,10.0,Calm,Calm,-,N/A,,Clear,0,2014-04-07 14:39:00
9:58 AM,42.8,42.8,100,29.81,10.0,West,4.6,-,N/A,,Scattered Clouds,280,2014-04-07 14:58:00
10:18 AM,44.6,42.8,93,29.81,10.0,West,3.5,-,N/A,,Mostly Cloudy,280,2014-04-07 15:18:00
10:36 AM,46.4,41.0,81,29.82,10.0,NW,4.6,-,N/A,,Scattered Clouds,310,2014-04-07 15:36:00
11:36 AM,44.6,39.2,81,29.83,10.0,WNW,10.4,-,N/A,,Mostly Cloudy,300,2014-04-07 16:36:00
11:56 AM,44.6,39.2,81,29.83,10.0,WNW,10.4,-,N/A,,Overcast,290,2014-04-07 16:56:00
12:17 PM,44.6,37.4,76,29.82,10.0,WNW,6.9,-,N/A,,Mostly Cloudy,290,2014-04-07 17:17:00
12:36 PM,46.4,37.4,71,29.82,10.0,WNW,9.2,-,N/A,,Scattered Clouds,290,2014-04-07 17:36:00
12:57 PM,46.4,37.4,71,29.82,10.0,WNW,6.9,-,N/A,,Clear,290,2014-04-07 17:57:00
1:18 PM,48.2,37.4,66,29.82,10.0,NW,6.9,-,N/A,,Clear,310,2014-04-07 18:18:00
1:38 PM,48.2,37.4,66,29.81,10.0,West,10.4,-,N/A,,Clear,280,2014-04-07 18:38:00
1:56 PM,50.0,35.6,58,29.81,10.0,WNW,8.1,-,N/A,,Clear,290,2014-04-07 18:56:00
2:17 PM,50.0,35.6,58,29.80,10.0,WNW,8.1,-,N/A,,Clear,290,2014-04-07 19:17:00
2:21 PM,50.0,35.6,58,29.80,10.0,West,10.4,17.3,N/A,,Clear,280,2014-04-07 19:21:00
3:18 PM,51.8,28.4,41,29.80,10.0,WNW,11.5,18.4,N/A,,Clear,290,2014-04-07 20:18:00
3:40 PM,51.8,26.6,38,29.79,10.0,NW,8.1,-,N/A,,Clear,320,2014-04-07 20:40:00
3:57 PM,51.8,26.6,38,29.79,10.0,NW,11.5,18.4,N/A,,Clear,310,2014-04-07 20:57:00
4:16 PM,51.8,26.6,38,29.80,10.0,NW,6.9,21.9,N/A,,Clear,310,2014-04-07 21:16:00
4:36 PM,51.8,24.8,35,29.80,10.0,NW,11.5,20.7,N/A,,Clear,310,2014-04-07 21:36:00
4:56 PM,50.0,23.0,35,29.80,10.0,NW,8.1,18.4,N/A,,Clear,310,2014-04-07 21:56:00
5:17 PM,50.0,23.0,35,29.80,10.0,NW,5.8,-,N/A,,Clear,310,2014-04-07 22:17:00
5:36 PM,50.0,21.2,32,29.80,10.0,NW,5.8,-,N/A,,Clear,320,2014-04-07 22:36:00
5:56 PM,50.0,23.0,35,29.80,10.0,NW,8.1,-,N/A,,Clear,320,2014-04-07 22:56:00
6:16 PM,48.2,26.6,43,29.81,10.0,WNW,9.2,-,N/A,,Clear,300,2014-04-07 23:16:00
6:36 PM,48.2,26.6,43,29.81,10.0,WNW,9.2,-,N/A,,Clear,300,2014-04-07 23:36:00
6:57 PM,46.4,26.6,46,29.81,10.0,WNW,9.2,-,N/A,,Clear,300,2014-04-07 23:57:00
7:18 PM,44.6,26.6,49,29.81,10.0,NW,10.4,-,N/A,,Clear,310,2014-04-08 00:18:00
7:37 PM,44.6,26.6,49,29.81,10.0,WNW,8.1,-,N/A,,Clear,300,2014-04-08 00:37:00
7:56 PM,42.8,26.6,53,29.82,10.0,WNW,9.2,-,N/A,,Clear,290,2014-04-08 00:56:00
8:16 PM,41.0,24.8,53,29.82,10.0,NW,5.8,-,N/A,,Clear,310,2014-04-08 01:16:00
8:58 PM,39.2,23.0,52,29.84,10.0,WNW,5.8,-,N/A,,Clear,300,2014-04-08 01:58:00
9:18 PM,39.2,23.0,52,29.84,10.0,WNW,5.8,-,N/A,,Clear,290,2014-04-08 02:18:00
9:36 PM,37.4,24.8,60,29.85,10.0,WNW,5.8,-,N/A,,Clear,300,2014-04-08 02:36:00
9:59 PM,37.4,24.8,60,29.84,10.0,WNW,5.8,-,N/A,,Clear,300,2014-04-08 02:59:00
10:16 PM,37.4,24.8,60,29.85,10.0,NW,5.8,-,N/A,,Clear,310,2014-04-08 03:16:00
10:36 PM,37.4,24.8,60,29.85,10.0,WNW,5.8,-,N/A,,Clear,300,2014-04-08 03:36:00
11:06 PM,35.6,24.8,65,29.85,10.0,WNW,8.1,-,N/A,,Clear,300,2014-04-08 04:06:00
11:16 PM,35.6,24.8,65,29.85,10.0,WNW,6.9,-,N/A,,Clear,300,2014-04-08 04:16:00
11:37 PM,33.8,24.8,70,29.85,10.0,NW,6.9,-,N/A,,Clear,310,2014-04-08 04:37:00
11:56 PM,33.8,24.8,70,29.85,10.0,WNW,5.8,-,N/A,,Clear,300,2014-04-08 04:56:00